Starlink 5156

operational
NORAD ID: 53973 Int'l Des: 2022-125 Owner: SPXS Country: US Constellation: starlink
LEOCIRCULAR

About Starlink 5156

Description loading...

Live Position

Loading 3D Globe...

Upcoming Passes

Altitude History

Altitude vs Time

uPlot chart will show altitude changes over time

Two-Line Element Set

1 53973U 22125K 25257.09242440 .00000020 00000-0 19348-4 0 9996
2 53973 53.2179 296.7772 0001257 84.9360 275.1775 15.08832893162663
Epoch: Sep 14, 2025 • Age: 34 hours

Current Status

Altitude 543.9 km
Velocity 7.60 km/s
Sub-Earth Point 46.22°N, 168.39°E
Launch Date Oct 5, 2022
Age 2.9 years
Type internet

Technical Details

Classification Payload
Mass 305.00 kg
Dry Mass 290.00 kg
Total Mass 305.00 kg
Length 0.20 m
Diameter 2.80 m
Span 9.00 m
Shape Box + pan
Manufacturer SPXS
Bus Type Starlink
Phase Status In Orbit
Owner/State SPXS/US

Large Constellations

Loading constellations...